Regional Weather Roundup
Issued by NWS

Home | Current Version | Previous Version | Text Only | Print | Product List | Glossary On
Versions: 1 2 3 4 5 6 7 8 9 10 11 12 13 14 15 16 17 18 19 20 21 22 23 24 25 26 27 28 29 30 31 32 33 34 35 36 37 38 39 40 41 42 43 44 45 46 47 48 49 50
000
ASHW40 PHFO 020630
RWRHI

WEATHER ROUNDUP FOR HAWAII
NATIONAL WEATHER SERVICE HONOLULU HI
800 PM HST WED JUL 01 2015

THIS IS AN AUTOMATED REPORT THAT HAS NOT BEEN QUALITY CONTROLLED.

NOTE..."FAIR" INDICATES FEW OR NO CLOUDS BELOW 12,000 FEET WITH NO
SIGNIFICANT WEATHER AND/OR OBSTRUCTIONS TO VISIBILITY.

* - THESE SITES REPORT LIMITED FIELDS

HIZ001>004-020700-
KAUAI-NIIHAU-

CITY           SKY/WX    TMP DP  RH WIND       PRES   REMARKS
LIHUE APT      PTCLDY    78  69  73 NE9       29.89R
PORT ALLEN*    NOT AVBL
POIPU*           N/A     79 N/A N/A W3          N/A
PRINCEVILLE*     N/A     77 N/A N/A MISG        N/A
KOKOLE POINT*  NOT AVBL
MOLOAA DAIRY*  NOT AVBL
WAIMEA HTS*    NOT AVBL
PUU OPAE*      NOT AVBL
PUU LUA*       NOT AVBL
MAKAHA RIDGE*    N/A     72  63  73 CALM        N/A
$$

HIZ005>011-020700-
OAHU-

CITY           SKY/WX    TMP DP  RH WIND       PRES   REMARKS
HONOLULU       PTCLDY    82  69  64 S3        29.88R
KALAELOA       CLEAR     79  69  71 W5        29.89R
KANEOHE MCB    CLEAR     79  71  76 CALM      29.87R
WHEELER FIELD  FAIR      75  68  78 VRB1      29.90R
BELLOWS*       NOT AVBL
KAHUKU*        NOT AVBL
WHEELER*       NOT AVBL
WAIANAE HARBOR NOT AVBL
DILLINGHAM*      N/A     77  70  78 MISG        N/A
KAHUKU TRN*      N/A     79  70  73 CALM        N/A
KAWAILOA*        N/A     72  61  68 E3          N/A
KII*             N/A     79  70  73 SE3         N/A
MAKUA RANGE*     N/A     79  66  65 E7          N/A
OAHU FOREST NW NOT AVBL
SCHOFIELD BRK*   N/A     75  68  78 MISG        N/A
SCHOFIELD S*   NOT AVBL
WAIANAE VLY*   NOT AVBL
KUAOKALA*      NOT AVBL
HONOULIUULI*   NOT AVBL
MOKUOLOE IS*     N/A    N/A N/A N/A MISG        N/A
PALEHUA*       NOT AVBL
WAIAWA PHB*    NOT AVBL
$$

HIZ012>013-020700-
MOLOKAI-

CITY           SKY/WX    TMP DP  RH WIND       PRES   REMARKS
MOLOKAI AIRPT  CLEAR     77  72  84 NE5       29.90R
KALAUPAPA      NOT AVBL
MAKAPULAPAI*   NOT AVBL
MOLOKAI 1*     NOT AVBL
PUU ALII*        N/A     64  63  97 CALM        N/A
$$

HIZ016-020700-
KAHOOLAWE-

CITY           SKY/WX    TMP DP  RH WIND       PRES   REMARKS
KAHOOLAWE*     NOT AVBL
HAKIOAWA*        N/A     76  70  83 MISG      30.33R
HONOKANAIA*      N/A     81  70  68 NE8         N/A
KANELOA*         N/A     75  72  88 E14G22    29.95R
KEALIALALO*      N/A     77  70  78 SE12G23   29.91R
LUA MAKIKA*    NOT AVBL
$$

HIZ014>015-020700-
LANAI-

CITY           SKY/WX    TMP DP  RH WIND       PRES   REMARKS
LANAI CITY     FAIR      74  68  81 W3        29.96R
LANAI 1*       NOT AVBL
$$

HIZ017>028-020700-
MAUI-

CITY           SKY/WX    TMP DP  RH WIND       PRES   REMARKS
KAHULUI        CLEAR     80  71  74 CALM      29.87R
KAPALUA-W MAUI NOT AVBL
HANA AIRPORT   PTCLDY    77  72  83 SE5       29.93S
HANA*            N/A     79 N/A N/A SE5         N/A
HALEAKALA SUMM   N/A     46  32  57 S3G16       N/A
MAALAEA BAY*   NOT AVBL
HALEAKALA*     NOT AVBL
KAUPO GAP*     NOT AVBL
KULA 1*          N/A     55  50  82 N5          N/A
$$

HIZ023>026-020700-
BIG ISLAND OF HAWAII COAST AND LOWER SLOPES-

CITY           SKY/WX    TMP DP  RH WIND       PRES   REMARKS
KAILUA KONA    CLEAR     82  73  74 SE12      29.87R
HILO           CLOUDY    78  73  84 SW6       29.92R
HONOKAA*       NOT AVBL
KAWAIHAE MWT*    N/A     82 N/A N/A NW1         N/A
KAWAIHAE*        N/A     82 N/A N/A VRB2        N/A
SOUTH POINT*   NOT AVBL
UPOLU AIRPORT*   N/A    N/A N/A N/A E13         N/A
KAMUELA*       CLOUDY    72  66  83 CALM      30.02S
HAKALAU*         N/A     59  58  98 SE2         N/A
KALOKO-HONOKO*   N/A     81  72  74 S5        29.87R
PALI 2*          N/A     68  68 100 E6          N/A
KEALAKOMO*       N/A     86  79  79 E8          N/A  HX  99
KAUPULEHU*     NOT AVBL
KAPAPALA*        N/A     71  70  96 E5G13       N/A
LOWER KAHUKU*    N/A     66  66 100 VRB2G8      N/A
PUHE CS*         N/A     81  72  74 W1          N/A
PUHO CS*         N/A     80  73  77 NE1         N/A
PTA KEAMUKU*     N/A     70  63  78 CALM        N/A
WAIKOLOA*      NOT AVBL
$$

HIZ027>028-020700-
BIG ISLAND OF HAWAII INTERIOR AND SUMMMITS-

CITY           SKY/WX    TMP DP  RH WIND       PRES   REMARKS
BRADSHAW FIELD MOCLDY    61  59  94 W2        30.27R
MK VISITOR CEN   N/A      0   0 100 MISG        N/A
MAUNA KEA*       N/A     39  14  35 NW12        N/A
MAUNA LOA*       N/A     46  41  81 MISG        N/A
MAUNA LOA 1*   NOT AVBL
PTA KIPUKA*      N/A     64  61  88 NW2G8       N/A
PTA RANGE 17*    N/A    N/A N/A N/A NW5         N/A
PTA WEST*        N/A     73  70  88 N3G10       N/A
NENE CABIN*      N/A     57 N/A N/A E3G10       N/A
AHUMOA*        NOT AVBL
PTA PORTABLE*  NOT AVBL
PUU MALI*        N/A     57  57 100 N2G8        N/A
$$

HIC003-020700-
NORTHWEST ISLANDS-

CITY           SKY/WX    TMP DP  RH WIND       PRES   REMARKS
MIDWAY ISLAND  CLEAR     81  70  69 N9        30.02S
MIDWAY NOS*    NOT AVBL
FRENCH FRIGATE NOT AVBL
$$

PHZ110>124-180-020700-
BUOY REPORTS

STATION/POSITION TIME  TEMP    WIND        PRES    WAVE   SWELL
                       AIR SEA DIR/SP/G            HT/PER HT/DIR
                 (UTC) (F)     (DEG/KT/KT) (MB)    (FT/S) (FT/D)
BUOY 51001       NOT AVBL
BUOY 51101       0600   77 79  260/  8/ 10 1009.9R   5/10   5/320
BUOY 51100       NOT AVBL
BUOY 51002       0600   80 81   80/ 14/ 17 1010.7R   6/ 9   5/ 90
BUOY 51003       0600   80 82   80/  6/  8 1011.8R   6/14   7
BUOY 51004       0522   80 80   90/ 16/ 17 1011.8R   7/14   7/190
BARBERS PT BUOY  NOT AVBL
WAIMEA BAY BUOY  0600      81                N/A     2/ 6
KAILUA BAY BUOY  0600      80                N/A     4/14   2/140
LANAI BUOY       NOT AVBL
BARBERS PT 2     0600      81                N/A     5/14   5/160
PAUWELA MAUI     0600      79                N/A     4/ 8
HILO             0600      79                N/A     6/ 8   2/130
KANEOHE BAY BUOY 0600      80                N/A     3/ 8
HANALEI KAUAI    0600      81                N/A     3/ 8   2/ 50
KAHULUI HARBOR   0600   80 82  330/  7/ 10 1011.5R
HONOLULU HARBOR  0600   80 82  220/  4/  5 1012.1R
KILO NALU        NOT AVBL
HILO HARBOR      0600   77 79  230/  7/  9 1012.6R
MOKUOLOE         0600      84              1012.1R
NAWILIWILI       0600   79 80  350/  3/  7 1011.8R
WHOTS BUOY       NOT AVBL
BUOY 51028       NOT AVBL
$$

......................KEY........................................
  SKY/WX - SKY CONDITIONS/PRESENT WEATHER
  TMP    - TEMPERATURE IN FAHRENHEIT
  DWPT   - DEWPOINT IN FAHRENHEIT
  RH     - RELATIVE HUMIDITY IN PERCENT
  WIND   - DIRECTION AND SPEED /MPH FOR ISLANDS...KTS FOR BUOYS/
  PRES   - MEAN SEA LEVEL PRESSURE IN INCHES OF HG
  VSB    - VISIBILITY IN MILES
  HX     - HEAT INDEX
  WCI    - WIND CHILL INDEX
  VRB    - VARIABLE WIND DIRECTION
  N/A    - NOT AVAILABLE


USA.gov is the U.S. government's official web portal to all federal, state and local government web resources and services.